Location: Aufkirchen
(47.9603°N, 11.3653°E)
Time: 17:28:40
(UTC+01:00)

Transit 2A - Pass Details

Date: 03 December 2020
Orbit: 599 x 960 km, 66.7° (Epoch: 26 January)

Event Time Altitude Azimuth Distance (km) Brightness Sun altitude
Rises 01:08:20 0° 325° (NW) 3,308 - -61.2°
Reaches altitude 10° 01:10:53 10° 326° (NW) 2,315 - -60.9°
Maximum altitude 01:16:09 87° 54° (NE) 716 - -60.5°
Drops below altitude 10° 01:20:52 10° 146° (SE) 2,077 - -60.0°
Sets 01:23:02 0° 146° (SE) 2,943 - -59.8°
